Location: Newark
(38.1091°N, 103.8677°W)
Time: 08:12:12
(UTC+00:00)

N. Korean satellite - Pass Details

Date: 29 October 2019
Orbit: 456 x 506 km, 97.2° (Epoch: 17 November)

Event Time Altitude Azimuth Distance (km) Brightness Sun altitude
Rises 11:59:13 0° 28° (NNE) 2,594 10.6 -16.0°
Reaches altitude 10° 12:01:44 10° 46° (NE) 1,712 9.9 -15.6°
Maximum altitude 12:04:29 20° 95° (E) 1,224 9.7 -15.0°
Drops below altitude 10° 12:07:13 10° 143° (SE) 1,712 10.0 -14.5°
Sets 12:09:44 0° 161° (SSE) 2,593 10.6 -14.0°
